Back to catalog

STTW-T2

AliveScienceGEO
NORAD 14899·PAYLOAD·🇨🇳 China

Launched Apr 8, 1984 from Xichang Satellite Launch Center

Loading…

TLE

FreshSource: Space-Track

Epoch: Sep 14, 2026, 14:16 UTC

1 14899U 84035A   26257.59503443 -.00000307  00000-0  00000-0 0  9997
2 14899   9.3077 317.3987 0007289 203.6274 147.0147  1.00173061 48260

Track STTW-T2 in real time with AllMySat

Download on the App Store